3 Gehege Außen am Haus Messungen

Zurück zum Überblick

Zeitpunkt Temperatur Luftfeuchte
22.05.2019 15:53:15 22,0 C 55,0%
22.05.2019 15:46:13 22,0 C 55,0%
22.05.2019 15:39:10 21,9 C 55,0%
22.05.2019 15:32:10 21,8 C 55,0%
22.05.2019 15:25:09 21,9 C 55,0%
22.05.2019 15:18:08 21,9 C 55,0%
22.05.2019 15:11:05 21,8 C 55,0%
22.05.2019 15:04:03 21,6 C 56,0%
22.05.2019 14:57:02 21,6 C 56,0%
22.05.2019 14:50:01 21,6 C 56,0%
22.05.2019 14:42:57 21,6 C 56,0%
22.05.2019 14:35:55 21,6 C 56,0%
22.05.2019 14:28:54 21,5 C 56,0%
22.05.2019 14:21:52 21,5 C 56,0%
22.05.2019 14:14:50 21,4 C 56,0%
22.05.2019 14:07:47 21,4 C 56,0%
22.05.2019 14:00:46 21,4 C 56,0%
22.05.2019 13:53:45 21,4 C 56,0%
22.05.2019 13:46:44 21,3 C 56,0%
22.05.2019 13:39:43 21,3 C 57,0%
22.05.2019 13:32:41 21,3 C 57,0%
22.05.2019 13:25:37 21,3 C 56,0%
22.05.2019 13:18:36 21,3 C 57,0%
22.05.2019 13:11:33 21,3 C 57,0%
22.05.2019 13:04:32 21,3 C 57,0%
22.05.2019 12:57:29 21,2 C 57,0%
22.05.2019 12:50:28 21,2 C 57,0%
22.05.2019 12:43:26 21,2 C 57,0%
22.05.2019 12:36:24 21,2 C 57,0%
22.05.2019 12:29:22 21,1 C 57,0%
22.05.2019 12:22:20 21,1 C 57,0%
22.05.2019 12:15:18 21,1 C 57,0%
22.05.2019 12:08:16 21,1 C 57,0%
22.05.2019 12:01:14 21,0 C 57,0%
22.05.2019 11:54:13 21,0 C 57,0%
22.05.2019 11:47:13 21,0 C 57,0%
22.05.2019 11:40:11 21,0 C 57,0%
22.05.2019 11:33:08 21,0 C 57,0%
22.05.2019 11:26:05 21,0 C 57,0%
22.05.2019 11:19:03 21,0 C 57,0%
22.05.2019 11:12:00 20,9 C 57,0%
22.05.2019 11:04:58 20,9 C 57,0%
22.05.2019 10:57:55 21,0 C 57,0%
22.05.2019 10:50:53 20,9 C 57,0%
22.05.2019 10:43:52 20,8 C 57,0%
22.05.2019 10:36:49 20,7 C 57,0%
22.05.2019 10:29:48 20,7 C 57,0%
22.05.2019 10:22:47 20,6 C 57,0%
22.05.2019 10:15:47 20,7 C 57,0%
22.05.2019 10:08:44 20,7 C 57,0%
22.05.2019 10:01:43 20,7 C 58,0%
22.05.2019 09:54:43 20,6 C 58,0%
22.05.2019 09:47:40 20,5 C 57,0%
22.05.2019 09:40:37 20,4 C 58,0%
22.05.2019 09:33:35 20,3 C 58,0%
22.05.2019 09:26:32 20,2 C 58,0%
22.05.2019 09:19:30 20,2 C 58,0%
22.05.2019 09:12:28 20,2 C 58,0%
22.05.2019 09:05:26 20,1 C 58,0%
22.05.2019 08:58:24 20,0 C 58,0%
22.05.2019 08:56:40 19,9 C 58,0%
22.05.2019 08:44:20 19,8 C 59,0%
22.05.2019 08:37:18 19,7 C 59,0%
22.05.2019 08:30:16 19,7 C 59,0%
22.05.2019 08:28:32 19,6 C 59,0%
22.05.2019 08:16:11 19,6 C 59,0%
22.05.2019 08:09:13 19,6 C 59,0%
22.05.2019 08:02:10 19,5 C 59,0%
22.05.2019 07:55:09 19,5 C 59,0%
22.05.2019 07:48:08 19,5 C 59,0%
22.05.2019 07:46:24 19,4 C 59,0%
22.05.2019 07:34:05 19,4 C 59,0%
22.05.2019 07:27:04 19,4 C 59,0%
22.05.2019 07:20:03 19,4 C 59,0%
22.05.2019 07:13:00 19,4 C 59,0%
22.05.2019 07:05:57 19,4 C 59,0%
22.05.2019 06:58:55 19,4 C 59,0%
22.05.2019 06:51:54 19,4 C 59,0%
22.05.2019 06:44:52 19,4 C 59,0%
22.05.2019 06:37:52 19,4 C 59,0%
22.05.2019 06:30:49 19,4 C 58,0%
22.05.2019 06:23:47 19,4 C 58,0%
22.05.2019 06:16:44 19,5 C 58,0%
22.05.2019 06:09:42 19,5 C 58,0%
22.05.2019 06:02:42 19,5 C 58,0%
22.05.2019 05:55:39 19,5 C 58,0%
22.05.2019 05:48:38 19,5 C 58,0%
22.05.2019 05:41:36 19,6 C 58,0%
22.05.2019 05:34:33 19,6 C 58,0%
22.05.2019 05:27:31 19,6 C 58,0%
22.05.2019 05:20:30 19,6 C 58,0%
22.05.2019 05:13:29 19,6 C 58,0%
22.05.2019 05:06:26 19,6 C 58,0%
22.05.2019 04:59:23 19,7 C 58,0%
22.05.2019 04:52:20 19,7 C 58,0%
22.05.2019 04:45:18 19,8 C 58,0%
22.05.2019 04:38:17 19,8 C 58,0%
22.05.2019 04:31:16 19,8 C 58,0%
22.05.2019 04:24:15 19,9 C 58,0%
22.05.2019 04:17:14 19,9 C 58,0%
22.05.2019 04:10:11 19,9 C 58,0%
22.05.2019 04:08:27 19,9 C 58,0%
22.05.2019 03:56:07 19,9 C 58,0%
22.05.2019 03:49:07 19,9 C 58,0%
22.05.2019 03:42:06 20,0 C 58,0%
22.05.2019 03:35:04 20,0 C 58,0%
22.05.2019 03:28:02 20,0 C 58,0%
22.05.2019 03:21:01 20,1 C 58,0%
22.05.2019 03:13:59 20,1 C 58,0%
22.05.2019 03:06:56 20,1 C 58,0%
22.05.2019 02:59:53 20,2 C 58,0%
22.05.2019 02:52:52 20,2 C 58,0%
22.05.2019 02:45:49 20,2 C 58,0%
22.05.2019 02:38:47 20,2 C 58,0%
22.05.2019 02:31:45 20,2 C 58,0%
22.05.2019 02:24:43 20,3 C 58,0%
22.05.2019 02:17:41 20,3 C 58,0%
22.05.2019 02:10:38 20,4 C 58,0%
22.05.2019 02:03:37 20,4 C 57,0%
22.05.2019 01:56:35 20,4 C 57,0%
22.05.2019 01:49:32 20,5 C 57,0%
22.05.2019 01:42:30 20,5 C 57,0%
22.05.2019 01:35:29 20,5 C 57,0%
22.05.2019 01:28:25 20,6 C 57,0%
22.05.2019 01:26:41 20,6 C 57,0%
22.05.2019 01:14:22 20,6 C 57,0%
22.05.2019 01:07:21 20,7 C 57,0%
22.05.2019 01:00:17 20,7 C 57,0%
22.05.2019 00:53:17 20,7 C 57,0%
22.05.2019 00:46:15 20,8 C 57,0%
22.05.2019 00:39:14 20,8 C 57,0%
22.05.2019 00:32:13 20,8 C 57,0%
22.05.2019 00:25:10 20,8 C 57,0%
22.05.2019 00:18:10 20,9 C 57,0%
22.05.2019 00:11:07 20,9 C 57,0%
22.05.2019 00:04:04 21,0 C 57,0%